Погода Соболево

Погода Соболево : погода сейчас, прогноз погоды и архив. Всё, что Вы хотите узнать о погоде Соболево!

Поиск расширенной информации на нашем сайте:

Другие новости

Новости СМИ2

Главная страница сайта

Новости сайта

03.07.2017

Напоминаем, что на нашем специализированном сайте Метеоцентр.Азия вы можете получить высокодетализированные автоматические прогнозы погоды по пунктам России, СНГ и мира в авиационном формате (включающие направление и скорость ветра, видимость, явления погоды, количество и форму облачности, нижнюю и верхнюю границу облачности).


Погода Соболево - сегодня

Время (UTC), дата Ветер
(°,м/с) 
Видим.   Явления Облачность Т
(°С)
Тd
(°С)
f(%) Тe
(°С)
Pmin
(гПа)
dP
(гПа)
Po
(мм)
O2
(г/м3)
Тmin Tmax R s Состояние
почвы
18 12.08.18 150 (ЮВ) 10 км    10/10 600 м 
[Sc]
+11.3 +10 92 +13  1016.6  -0.2  760  292           
00 13.08.18 200 (Ю) 10 км    10/10 300 м 
[St]
+13.8 +10.3 79 +14  1016.6  0.2  760  290           
03 13.08.18 200 (Ю) 10 км    10/10 600 м 
[Sc]
+14.2 +9.4 73 +14  1016.3  -0.3  760  289           
09 13.08.18 тихо ()   10 км  в посл. час ливневой дождь  10/10 300 м 
[St]
+12 +11 94 +14  1016.1  -0.2  760  291    +14.6  0.5     
12 13.08.18 070 (В) 10 км  {ливн. осадки}  10/10 300 м 
[St]
+11.5 +10.8 95 +15  1015.9  -0.2  760  292           
15 13.08.18 080 (В) 10 км    10/10 300 м 
[St]
+11.2 +10.4 95 +13  1015.6  -0.3  759  292           
18 13.08.18 110 (В) 10 км  в посл. час ливневой дождь  10/10 300 м 
[St]
+11.2 +10.3 94 +13  1015.2  -0.4  759  292           
03 14.08.18 060 (СВ) 10 км  слаб. ливневой дождь  10/10 600 м кучево-дожд. 
[Cb cap]
+15.5 +13.4 87 +22  1014.2  -0.8  758  286           
06 14.08.18 090 (В) 10 км  слаб. ливневой дождь  10/10 600 м кучево-дожд. 
[Cb cap]
+15.2 +14 93 +23  1013.8  -0.3  758  287           
09 14.08.18 090 (В) 10 км  слаб. ливневой дождь  10/10 300 м кучево-дожд. 
[Cb cap]
+13.8 +12.7 93 +20  1014.1  0.2  758  288    +15.5     
12 14.08.18 тихо ()   10 км  слаб. ливневой дождь  10/10 300 м кучево-дожд. 
[Cb cap]
+12.6 +12 96 +16  1014.4  0.3  759  290           
15 14.08.18 310 (СЗ) 10 км  в посл. час ливневой дождь  10/10 300 м 
[St]
+12.4 +11.9 97 +18  1014  -0.4  758  290           
18 14.08.18 250 (З) 10 км  {ливн. осадки}  10/10 300 м 
[St]
+11.5 +11 97 +15  1014.1  0.1  758  291           
03 15.08.18 320 (СЗ) 10 км  слаб. ливневой дождь  10/10 600 м кучево-дожд. 
[Cb cap]
+15.1 +13.2 88 +21  1014.3  -0.5  758  287           
06 15.08.18 250 (З) 10 км  {ливн. осадки}  10/10 600 м 
[Sc]
+14.1 +11.7 85 +18  1014.3  758  288           
12 15.08.18 350 (С) 10 км  слаб. ливневой дождь  10/10 600 м кучево-дожд. 
[Cb cap]
+11.9 +11.3 96 +16  1014.1  0.1  758  291           
15 15.08.18 060 (СВ) 10 км  слаб. ливневой дождь  10/10 300 м кучево-дожд. 
[Cb cap]
+10.9 +10.3 96 +12  1013.9  -0.2  758  292           
18 15.08.18 060 (СВ) н/о    н/о 
+10.1 +9.4 95 +11  1013.3  -0.6  758  293           
00 16.08.18 340 (С) 20000 м    9/3 1000 м средняя 
[Cu hum|Ac As]
+16.2 +9.3 64 +17  1012.1  -1  757  286           
03 16.08.18 300 (СЗ) 10 км    9/8 600 м средняя 
[Sc|Ac As]
+15.8 +11.2 74 +19  1011  -1.1  756  286           
06 16.08.18 320 (СЗ) 20000 м    6/4 1000 м средняя 
[Sc|Ac As]
+16.6 +10.3 66 +18  1010.2  -0.8  755  285           
12 16.08.18 тихо ()   20000 м    3/0 верхняя 
[Ci fib]
+7 +6.4 96 +7  1011.7  0.7  756  296           
15 16.08.18 070 (В) 0500 м  туман  ?/?  
+7.7 +7.2 97 +9  1011.5  -0.2  756  295           
18 16.08.18 060 (СВ) 0500 м  туман  ?/?  
+7.4 +6.9 97 +7  1012.2  0.7  757  296           
21 16.08.18 130 (ЮВ) 10 км  в посл. час туман  10/10 600 м 
[Sc]
+9.3 +8.8 97 +9  1012.6  0.5  757  294  +6.2        влажная 
Время (UTC), дата Ветер
(°,м/с) 
Видим.   Явления Облачность Т
(°С)
Тd
(°С)
f(%) Тe
(°С)
Pmin
(гПа)
dP
(гПа)
Po
(мм)
O2
(г/м3)
Тmin Tmax R s Состояние
почвы

Для получения пояснительной информации подведите курсор к названию столбца.

ПОГОДА Соболево - архив

Всё, что Вы хотите узнать о погоде Соболево - удобно и подробно!

Выберите нужную дату (начиная с 1 января 2015* года) и нажмите кнопку "Найти".
Будут отображены архивные сводки погоды по пункту Соболево, начиная с указанной даты.


Отображать данные в формате CSV (для использования в таблицах Excel)


Внимание! Наш архив погоды предназначен исключительно для личного некоммерческого использования в познавательных целях. Если Вам необходимы официальные справки о состоянии погоды (для производственных, юридических, коммерческих и т.п. целей), обращайтесь в органы Росгидромета.

*Примечание: данная дата относится к архиву по метеостанциям СССР (Россия, СНГ, Балтия).
Архив по метеостанциям Зарубежной Европы и Азии (кроме Китая) хранится 10 дней, по другим регионам земного шара (Китай, Африка, Америка, Австралия, Океания) - 1 день.

Соболево - район местоположения метеостанции


Название, широта, долгота, высота метеостанции:
Соболево 54.30°ш. 155.93°д. 14 м над ур. моря [Российская Федерация]

Дополнительная информация

В oтличие oт бoльшинства пoгoдных сайтoв мы публикуем пoдрoбную метеoинфoрмацию в детальнoм прoфессиoнальнoм фoрмате.

Характеристики температуры и влажнoсти вoздуха измеряются на высoте 2 м в тени вдали oт зданий и деревьев.
Скoрoсть ветра измеряется на высoте 10 м (на урoвне рoста челoвека скoрoсть ветра ниже в 1.5-2 раза). Если метеoстанция нахoдится в гoрoде или в лесу, тo скoрoсть ветра занижена на 2-4 м/с пo сравнению с oткрытым местoм. Скoрoсть ветра над акватoриями крупных рек и oзёр, а также на вершинах хoлмoв на 2-5 м/с выше, чем в oбычных услoвиях.
Атмoсфернoе давление в разных тoчках местнoсти мoжет значительнo oтличаться oт давления на метеoстанции, в зависимoсти oт услoвий рельефа (при пoдъёме на 10 м давление пoнижается примернo на 1 мм рт.ст.).